"datetime","temp","dp","rain_mm","uv","mb"
"2020-12-27 00:00:00",10.0,8.8,0.0,0.0,992.0
"2020-12-27 00:01:00",10.1,8.9,0.0,0.0,991.8
"2020-12-27 00:02:00",10.0,8.8,0.0,0.0,992.0
"2020-12-27 00:03:00",10.1,8.9,0.0,0.0,991.9
"2020-12-27 00:04:00",10.1,8.9,0.0,0.0,992.0
"2020-12-27 00:05:00",10.0,8.8,0.0,0.0,991.7
"2020-12-27 00:06:00",10.1,8.9,0.0,0.0,991.8
"2020-12-27 00:07:00",10.0,8.8,0.0,0.0,991.6
"2020-12-27 00:08:00",10.1,8.9,0.0,0.0,991.7
"2020-12-27 00:09:00",10.0,8.8,0.0,0.0,991.4
"2020-12-27 00:10:00",10.0,8.8,0.0,0.0,991.5
"2020-12-27 00:11:00",10.0,8.8,0.0,0.0,991.6
"2020-12-27 00:12:00",10.0,8.8,0.0,0.0,991.4
"2020-12-27 00:13:00",10.0,8.8,0.0,0.0,991.4
"2020-12-27 00:14:00",10.0,8.8,0.0,0.0,991.4
"2020-12-27 00:15:00",10.0,8.8,0.0,0.0,991.3
"2020-12-27 00:16:00",10.0,8.8,0.0,0.0,991.2
"2020-12-27 00:17:00",10.0,8.8,0.0,0.0,991.2
"2020-12-27 00:18:00",10.0,8.8,0.0,0.0,991.3
"2020-12-27 00:19:00",10.0,8.8,0.0,0.0,991.1
"2020-12-27 00:20:00",10.0,8.8,0.0,0.0,990.9
"2020-12-27 00:21:00",10.0,8.8,0.0,0.0,991.2
"2020-12-27 00:22:00",10.0,8.8,0.0,0.0,991.1
"2020-12-27 00:23:00",10.0,8.8,0.0,0.0,991.1
"2020-12-27 00:24:00",10.0,8.8,0.0,0.0,990.9
"2020-12-27 00:25:00",9.9,8.7,0.2,0.0,990.7
"2020-12-27 00:26:00",9.9,8.7,0.2,0.0,990.8
"2020-12-27 00:27:00",10.0,8.8,0.2,0.0,990.7
"2020-12-27 00:28:00",10.0,8.8,0.2,0.0,990.6
"2020-12-27 00:29:00",10.0,8.8,0.2,0.0,990.5
"2020-12-27 00:30:00",9.9,8.7,0.2,0.0,990.4
"2020-12-27 00:31:00",9.9,8.7,0.2,0.0,990.3
"2020-12-27 00:32:00",9.9,8.7,0.2,0.0,990.2
"2020-12-27 00:33:00",9.9,8.7,0.2,0.0,990.2
"2020-12-27 00:34:00",9.9,8.7,0.2,0.0,990.1
"2020-12-27 00:35:00",9.9,8.7,0.2,0.0,990.2
"2020-12-27 00:36:00",9.9,8.7,0.2,0.0,990.3
"2020-12-27 00:37:00",9.9,8.7,0.2,0.0,990.2
"2020-12-27 00:38:00",9.9,8.7,0.2,0.0,990.1
"2020-12-27 00:39:00",9.9,8.7,0.2,0.0,990.1
"2020-12-27 00:40:00",9.9,8.7,0.2,0.0,989.9
"2020-12-27 00:41:00",9.9,8.7,0.2,0.0,989.9
"2020-12-27 00:42:00",9.9,8.7,0.4,0.0,990.0
"2020-12-27 00:43:00",9.9,8.7,0.4,0.0,989.9
"2020-12-27 00:44:00",9.9,8.7,0.4,0.0,989.7
"2020-12-27 00:45:00",9.9,8.7,0.4,0.0,989.9
"2020-12-27 00:46:00",9.9,8.7,0.4,0.0,989.8
"2020-12-27 00:47:00",9.9,8.7,0.4,0.0,989.7
"2020-12-27 00:48:00",9.9,8.7,0.4,0.0,989.5
"2020-12-27 00:49:00",9.9,8.7,0.4,0.0,989.5
"2020-12-27 00:50:00",9.9,8.7,0.4,0.0,989.5
"2020-12-27 00:51:00",9.9,8.7,0.4,0.0,989.4
"2020-12-27 00:52:00",9.9,8.7,0.4,0.0,989.2
"2020-12-27 00:53:00",9.9,8.7,0.4,0.0,989.3
"2020-12-27 00:54:00",9.9,8.8,0.4,0.0,989.3
"2020-12-27 00:55:00",9.9,8.8,0.4,0.0,989.3
"2020-12-27 00:56:00",9.9,8.7,0.4,0.0,989.2
"2020-12-27 00:57:00",9.9,8.8,0.4,0.0,989.3
"2020-12-27 00:58:00",9.9,8.8,0.4,0.0,989.3
"2020-12-27 00:59:00",9.9,8.8,0.4,0.0,989.1
"2020-12-27 01:00:00",9.9,8.8,0.4,0.0,989.1
"2020-12-27 01:01:00",9.9,8.8,0.4,0.0,989.1
"2020-12-27 01:02:00",9.9,8.8,0.4,0.0,989.3
"2020-12-27 01:03:00",9.9,8.8,0.4,0.0,989.1
"2020-12-27 01:04:00",9.9,8.8,0.4,0.0,989.0
"2020-12-27 01:05:00",10.0,8.9,0.4,0.0,988.9
"2020-12-27 01:06:00",9.9,8.8,0.4,0.0,989.1
"2020-12-27 01:07:00",9.9,8.8,0.4,0.0,989.0
"2020-12-27 01:08:00",10.0,8.9,0.4,0.0,988.9
"2020-12-27 01:09:00",9.9,8.8,0.6,0.0,988.8
"2020-12-27 01:10:00",9.9,8.8,0.6,0.0,988.7
"2020-12-27 01:11:00",9.9,8.8,0.6,0.0,988.8
"2020-12-27 01:12:00",10.0,8.9,0.6,0.0,988.7
"2020-12-27 01:13:00",10.0,8.9,0.6,0.0,988.4
"2020-12-27 01:14:00",10.0,8.9,0.8,0.0,988.4
"2020-12-27 01:15:00",10.0,8.9,0.8,0.0,988.3
"2020-12-27 01:16:00",9.9,8.8,0.8,0.0,988.3
"2020-12-27 01:17:00",10.0,8.9,1.0,0.0,988.3
"2020-12-27 01:18:00",10.0,8.9,1.0,0.0,988.4
"2020-12-27 01:19:00",9.9,8.8,1.0,0.0,988.4
"2020-12-27 01:20:00",9.9,8.8,1.0,0.0,987.8
"2020-12-27 01:21:00",9.9,8.8,1.2,0.0,988.2
"2020-12-27 01:22:00",9.9,8.8,1.2,0.0,987.8
"2020-12-27 01:23:00",9.9,8.8,1.2,0.0,988.1
"2020-12-27 01:24:00",9.9,8.8,1.2,0.0,988.1
"2020-12-27 01:25:00",9.9,8.8,1.2,0.0,987.9
"2020-12-27 01:26:00",9.9,8.8,1.2,0.0,987.9
"2020-12-27 01:27:00",9.9,8.8,1.2,0.0,987.8
"2020-12-27 01:28:00",9.9,8.8,1.2,0.0,987.8
"2020-12-27 01:29:00",9.9,8.8,1.2,0.0,987.8
"2020-12-27 01:30:00",9.9,8.7,1.4,0.0,987.6
"2020-12-27 01:31:00",9.9,8.8,1.6,0.0,987.7
"2020-12-27 01:32:00",9.8,8.7,1.6,0.0,987.7
"2020-12-27 01:33:00",9.8,8.6,1.8,0.0,987.5
"2020-12-27 01:34:00",9.8,8.7,1.8,0.0,987.5
"2020-12-27 01:35:00",9.8,8.7,2.0,0.0,987.7
"2020-12-27 01:36:00",9.8,8.7,2.0,0.0,987.4
"2020-12-27 01:37:00",9.8,8.6,2.0,0.0,987.4
"2020-12-27 01:38:00",9.8,8.6,2.2,0.0,987.4
"2020-12-27 01:39:00",9.8,8.7,2.2,0.0,987.4
"2020-12-27 01:40:00",9.8,8.7,2.2,0.0,987.1
"2020-12-27 01:41:00",9.8,8.7,2.2,0.0,987.1
"2020-12-27 01:42:00",9.7,8.6,2.4,0.0,987.0
"2020-12-27 01:43:00",9.7,8.6,2.4,0.0,986.9
"2020-12-27 01:44:00",9.7,8.6,2.4,0.0,986.9
"2020-12-27 01:45:00",9.7,8.6,2.6,0.0,986.8
"2020-12-27 01:46:00",9.7,8.6,2.6,0.0,986.7
"2020-12-27 01:47:00",9.7,8.6,2.6,0.0,986.5
"2020-12-27 01:48:00",9.7,8.6,2.6,0.0,986.7
"2020-12-27 01:49:00",9.7,8.6,2.8,0.0,986.5
"2020-12-27 01:50:00",9.7,8.6,2.8,0.0,986.5
"2020-12-27 01:51:00",9.7,8.6,2.8,0.0,986.4
"2020-12-27 01:52:00",9.7,8.6,3.0,0.0,986.7
"2020-12-27 01:53:00",9.7,8.6,3.0,0.0,986.5
"2020-12-27 01:54:00",9.7,8.6,3.0,0.0,986.3
"2020-12-27 01:55:00",9.7,8.6,3.0,0.0,986.2
"2020-12-27 01:56:00",9.7,8.6,3.0,0.0,986.2
"2020-12-27 01:57:00",9.7,8.6,3.2,0.0,986.4
"2020-12-27 01:58:00",9.7,8.6,3.2,0.0,986.3
"2020-12-27 01:59:00",9.7,8.6,3.2,0.0,986.2
"2020-12-27 02:00:00",9.6,8.5,3.2,0.0,986.0
"2020-12-27 02:01:00",9.6,8.5,3.4,0.0,986.1
"2020-12-27 02:02:00",9.6,8.5,3.4,0.0,986.0
"2020-12-27 02:03:00",9.6,8.5,3.6,0.0,986.0
"2020-12-27 02:04:00",9.6,8.5,3.6,0.0,986.0
"2020-12-27 02:05:00",9.6,8.5,3.6,0.0,985.9
"2020-12-27 02:06:00",9.6,8.5,3.8,0.0,986.0
"2020-12-27 02:07:00",9.6,8.5,3.8,0.0,985.8
"2020-12-27 02:08:00",9.6,8.5,3.8,0.0,985.8
"2020-12-27 02:09:00",9.6,8.5,4.0,0.0,985.7
"2020-12-27 02:10:00",9.6,8.5,4.0,0.0,985.7
"2020-12-27 02:11:00",9.6,8.5,4.0,0.0,985.5
"2020-12-27 02:12:00",9.6,8.5,4.0,0.0,985.5
"2020-12-27 02:13:00",9.6,8.5,4.0,0.0,985.6
"2020-12-27 02:14:00",9.6,8.5,4.2,0.0,985.7
"2020-12-27 02:15:00",9.6,8.5,4.2,0.0,985.6
"2020-12-27 02:16:00",9.6,8.5,4.2,0.0,985.5
"2020-12-27 02:17:00",9.6,8.5,4.2,0.0,985.6
"2020-12-27 02:18:00",9.6,8.5,4.2,0.0,985.4
"2020-12-27 02:19:00",9.6,8.5,4.2,0.0,985.5
"2020-12-27 02:20:00",9.6,8.5,4.4,0.0,985.0
"2020-12-27 02:21:00",9.6,8.5,4.4,0.0,985.3
"2020-12-27 02:22:00",9.6,8.5,4.4,0.0,985.5
"2020-12-27 02:23:00",9.6,8.5,4.4,0.0,985.2
"2020-12-27 02:24:00",9.5,8.4,4.4,0.0,985.3
"2020-12-27 02:25:00",9.5,8.4,4.4,0.0,985.1
"2020-12-27 02:26:00",9.5,8.4,4.6,0.0,985.1
"2020-12-27 02:27:00",9.5,8.4,4.6,0.0,985.0
"2020-12-27 02:28:00",9.5,8.4,4.6,0.0,985.0
"2020-12-27 02:29:00",9.5,8.4,4.6,0.0,984.9
"2020-12-27 02:30:00",9.4,8.3,4.6,0.0,984.9
"2020-12-27 02:31:00",9.4,8.3,4.6,0.0,984.7
"2020-12-27 02:32:00",9.4,8.3,4.6,0.0,984.8
"2020-12-27 02:33:00",9.4,8.3,4.8,0.0,984.9
"2020-12-27 02:34:00",9.4,8.3,4.8,0.0,984.7
"2020-12-27 02:35:00",9.4,8.3,4.8,0.0,984.4
"2020-12-27 02:36:00",9.4,8.3,4.8,0.0,984.7
"2020-12-27 02:37:00",9.4,8.3,5.0,0.0,984.7
"2020-12-27 02:38:00",9.4,8.3,5.0,0.0,984.4
"2020-12-27 02:39:00",9.4,8.3,5.0,0.0,984.2
"2020-12-27 02:40:00",9.4,8.3,5.0,0.0,984.3
"2020-12-27 02:41:00",9.4,8.3,5.0,0.0,984.2
"2020-12-27 02:42:00",9.3,8.2,5.0,0.0,984.2
"2020-12-27 02:43:00",9.3,8.2,5.0,0.0,984.1
"2020-12-27 02:44:00",9.3,8.2,5.0,0.0,984.2
"2020-12-27 02:45:00",9.3,8.2,5.2,0.0,983.8
"2020-12-27 02:46:00",9.3,8.2,5.2,0.0,984.1
"2020-12-27 02:47:00",9.3,8.2,5.2,0.0,983.8
"2020-12-27 02:48:00",9.3,8.2,5.2,0.0,983.7
"2020-12-27 02:49:00",9.3,8.2,5.2,0.0,983.9
"2020-12-27 02:50:00",9.3,8.2,5.2,0.0,983.9
"2020-12-27 02:51:00",9.3,8.2,5.4,0.0,983.8
"2020-12-27 02:52:00",9.3,8.2,5.4,0.0,983.8
"2020-12-27 02:53:00",9.3,8.2,5.4,0.0,983.8
"2020-12-27 02:54:00",9.3,8.2,5.4,0.0,983.8
"2020-12-27 02:55:00",9.3,8.2,5.6,0.0,983.6
"2020-12-27 02:56:00",9.3,8.2,5.6,0.0,983.6
"2020-12-27 02:57:00",9.3,8.2,5.6,0.0,983.6
"2020-12-27 02:58:00",9.3,8.2,5.8,0.0,983.5
"2020-12-27 02:59:00",9.3,8.2,5.8,0.0,983.4
"2020-12-27 03:00:00",9.3,8.2,5.8,0.0,983.3
"2020-12-27 03:01:00",9.3,8.2,5.8,0.0,983.5
"2020-12-27 03:02:00",9.3,8.2,6.0,0.0,983.6
"2020-12-27 03:03:00",9.3,8.2,6.0,0.0,983.4
"2020-12-27 03:04:00",9.3,8.2,6.0,0.0,983.4
"2020-12-27 03:05:00",9.3,8.2,6.2,0.0,983.2
"2020-12-27 03:06:00",9.3,8.2,6.2,0.0,983.4
"2020-12-27 03:07:00",9.3,8.2,6.2,0.0,983.0
"2020-12-27 03:08:00",9.3,8.2,6.2,0.0,983.3
"2020-12-27 03:09:00",9.3,8.2,6.2,0.0,983.2
"2020-12-27 03:10:00",9.3,8.2,6.4,0.0,983.2
"2020-12-27 03:11:00",9.3,8.2,6.4,0.0,982.6
"2020-12-27 03:12:00",9.3,8.2,6.4,0.0,982.2
"2020-12-27 03:13:00",9.3,8.2,6.4,0.0,982.2
"2020-12-27 03:14:00",9.3,8.2,6.4,0.0,982.6
"2020-12-27 03:15:00",9.3,8.2,6.4,0.0,982.6
"2020-12-27 03:16:00",9.3,8.2,6.4,0.0,982.7
"2020-12-27 03:17:00",9.3,8.2,6.6,0.0,982.8
"2020-12-27 03:18:00",9.3,8.2,6.6,0.0,982.5
"2020-12-27 03:19:00",9.3,8.2,6.6,0.0,982.4
"2020-12-27 03:20:00",9.3,8.2,6.6,0.0,982.4
"2020-12-27 03:21:00",9.2,8.1,6.6,0.0,982.4
"2020-12-27 03:22:00",9.2,8.1,6.6,0.0,982.3
"2020-12-27 03:23:00",9.2,8.1,6.8,0.0,982.4
"2020-12-27 03:24:00",9.2,8.1,6.8,0.0,982.2
"2020-12-27 03:25:00",9.2,8.1,6.8,0.0,982.2
"2020-12-27 03:26:00",9.2,8.1,6.8,0.0,982.0
"2020-12-27 03:27:00",9.2,8.1,6.8,0.0,982.2
"2020-12-27 03:28:00",9.2,8.1,6.8,0.0,981.9
"2020-12-27 03:29:00",9.2,8.1,7.0,0.0,982.0
"2020-12-27 03:30:00",9.2,8.1,7.0,0.0,982.0
"2020-12-27 03:31:00",9.1,8.0,7.0,0.0,981.8
"2020-12-27 03:32:00",9.2,8.1,7.0,0.0,981.7
"2020-12-27 03:33:00",9.2,8.1,7.0,0.0,981.7
"2020-12-27 03:34:00",9.1,8.0,7.0,0.0,981.7
"2020-12-27 03:35:00",9.1,8.0,7.0,0.0,981.5
"2020-12-27 03:36:00",9.1,8.0,7.0,0.0,981.5
"2020-12-27 03:37:00",9.1,8.0,7.2,0.0,981.6
"2020-12-27 03:38:00",9.1,8.0,7.2,0.0,981.4
"2020-12-27 03:39:00",9.1,8.0,7.2,0.0,981.5
"2020-12-27 03:40:00",9.1,8.0,7.2,0.0,981.3
"2020-12-27 03:41:00",9.1,8.0,7.4,0.0,981.2
"2020-12-27 03:42:00",9.1,8.0,7.4,0.0,981.3
"2020-12-27 03:43:00",9.2,8.1,7.4,0.0,981.4
"2020-12-27 03:44:00",9.1,8.0,7.6,0.0,981.2
"2020-12-27 03:45:00",9.1,8.0,7.6,0.0,981.1
"2020-12-27 03:46:00",9.2,8.1,7.6,0.0,981.0
"2020-12-27 03:47:00",9.2,8.1,7.6,0.0,981.0
"2020-12-27 03:48:00",9.2,8.1,7.8,0.0,981.1
"2020-12-27 03:49:00",9.1,8.0,7.8,0.0,980.9
"2020-12-27 03:50:00",9.2,8.1,7.8,0.0,981.0
"2020-12-27 03:51:00",9.2,8.1,8.0,0.0,980.9
"2020-12-27 03:52:00",9.2,8.1,8.0,0.0,980.8
"2020-12-27 03:53:00",9.2,8.1,8.0,0.0,980.8
"2020-12-27 03:54:00",9.2,8.1,8.2,0.0,980.7
"2020-12-27 03:55:00",9.2,8.1,8.2,0.0,980.6
"2020-12-27 03:56:00",9.2,8.1,8.2,0.0,980.5
"2020-12-27 03:57:00",9.2,8.1,8.2,0.0,980.8
"2020-12-27 03:58:00",9.2,8.1,8.4,0.0,980.7
"2020-12-27 03:59:00",9.2,8.1,8.4,0.0,980.5
"2020-12-27 04:00:00",9.2,8.1,8.4,0.0,980.5
"2020-12-27 04:01:00",9.2,8.1,8.4,0.0,980.5
"2020-12-27 04:02:00",9.2,8.1,8.4,0.0,980.5
"2020-12-27 04:03:00",9.2,8.1,8.4,0.0,980.3
"2020-12-27 04:04:00",9.2,8.1,8.6,0.0,980.2
"2020-12-27 04:05:00",9.2,8.1,8.6,0.0,980.1
"2020-12-27 04:06:00",9.2,8.1,8.6,0.0,980.2
"2020-12-27 04:07:00",9.1,8.0,8.6,0.0,979.9
"2020-12-27 04:08:00",9.2,8.1,8.6,0.0,980.1
"2020-12-27 04:09:00",9.1,8.0,8.6,0.0,980.2
"2020-12-27 04:10:00",9.1,8.0,8.6,0.0,980.0
"2020-12-27 04:11:00",9.1,8.0,8.8,0.0,979.9
"2020-12-27 04:12:00",9.1,8.0,8.8,0.0,980.0
"2020-12-27 04:13:00",9.1,8.0,8.8,0.0,979.9
"2020-12-27 04:14:00",9.1,8.0,8.8,0.0,979.6
"2020-12-27 04:15:00",9.1,8.0,8.8,0.0,979.9
"2020-12-27 04:16:00",9.1,8.0,9.0,0.0,980.0
"2020-12-27 04:17:00",9.1,8.0,9.0,0.0,979.7
"2020-12-27 04:18:00",9.1,8.0,9.0,0.0,979.6
"2020-12-27 04:19:00",9.1,8.0,9.0,0.0,979.6
"2020-12-27 04:20:00",9.1,8.0,9.0,0.0,979.9
"2020-12-27 04:21:00",9.2,8.1,9.0,0.0,979.5
"2020-12-27 04:22:00",9.1,8.0,9.0,0.0,979.4
"2020-12-27 04:23:00",9.2,8.1,9.0,0.0,979.5
"2020-12-27 04:24:00",9.2,8.1,9.2,0.0,979.3
"2020-12-27 04:25:00",9.2,8.1,9.2,0.0,979.4
"2020-12-27 04:26:00",9.2,8.1,9.2,0.0,979.4
"2020-12-27 04:27:00",9.2,8.1,9.2,0.0,979.2
"2020-12-27 04:28:00",9.1,8.0,9.2,0.0,979.3
"2020-12-27 04:29:00",9.1,8.0,9.2,0.0,979.3
"2020-12-27 04:30:00",9.2,8.1,9.2,0.0,979.2
"2020-12-27 04:31:00",9.2,8.1,9.2,0.0,979.3
"2020-12-27 04:32:00",9.1,8.0,9.2,0.0,979.0
"2020-12-27 04:33:00",9.2,8.1,9.2,0.0,979.1
"2020-12-27 04:34:00",9.2,8.1,9.4,0.0,979.1
"2020-12-27 04:35:00",9.2,8.1,9.4,0.0,979.0
"2020-12-27 04:36:00",9.2,8.1,9.4,0.0,979.1
"2020-12-27 04:37:00",9.2,8.1,9.4,0.0,979.0
"2020-12-27 04:38:00",9.2,8.1,9.4,0.0,979.0
"2020-12-27 04:39:00",9.2,8.1,9.6,0.0,979.0
"2020-12-27 04:40:00",9.2,8.1,9.6,0.0,979.0
"2020-12-27 04:41:00",9.2,8.1,9.6,0.0,978.9
"2020-12-27 04:42:00",9.2,8.1,9.8,0.0,978.9
"2020-12-27 04:43:00",9.2,8.1,9.8,0.0,978.9
"2020-12-27 04:44:00",9.2,8.1,9.8,0.0,978.8
"2020-12-27 04:45:00",9.2,8.1,9.8,0.0,978.5
"2020-12-27 04:46:00",9.2,8.1,10.0,0.0,978.7
"2020-12-27 04:47:00",9.2,8.1,10.0,0.0,978.8
"2020-12-27 04:48:00",9.2,8.1,10.0,0.0,978.7
"2020-12-27 04:49:00",9.2,8.1,10.2,0.0,978.9
"2020-12-27 04:50:00",9.2,8.1,10.2,0.0,978.5
"2020-12-27 04:51:00",9.2,8.1,10.2,0.0,978.5
"2020-12-27 04:52:00",9.2,8.1,10.2,0.0,978.5
"2020-12-27 04:53:00",9.2,8.1,10.2,0.0,978.6
"2020-12-27 04:54:00",9.2,8.1,10.2,0.0,978.4
"2020-12-27 04:55:00",9.2,8.1,10.2,0.0,978.2
"2020-12-27 04:56:00",9.2,8.1,10.4,0.0,978.5
"2020-12-27 04:57:00",9.2,8.1,10.4,0.0,978.4
"2020-12-27 04:58:00",9.2,8.1,10.4,0.0,978.4
"2020-12-27 04:59:00",9.2,8.1,10.4,0.0,978.3
"2020-12-27 05:00:00",9.1,8.0,10.4,0.0,978.4
"2020-12-27 05:01:00",9.1,8.0,10.4,0.0,978.3
"2020-12-27 05:02:00",9.1,8.0,10.4,0.0,978.3
"2020-12-27 05:03:00",9.1,8.0,10.6,0.0,978.3
"2020-12-27 05:04:00",9.1,8.0,10.6,0.0,978.2
"2020-12-27 05:05:00",9.1,8.0,10.6,0.0,978.2
"2020-12-27 05:06:00",9.1,8.0,10.6,0.0,978.3
"2020-12-27 05:07:00",9.1,8.0,10.6,0.0,978.2
"2020-12-27 05:08:00",9.1,8.0,10.6,0.0,978.2
"2020-12-27 05:09:00",9.1,8.0,10.8,0.0,978.1
"2020-12-27 05:10:00",9.1,8.0,10.8,0.0,978.1
"2020-12-27 05:11:00",9.1,8.0,10.8,0.0,978.0
"2020-12-27 05:12:00",9.1,8.0,10.8,0.0,978.0
"2020-12-27 05:13:00",9.1,8.0,10.8,0.0,978.0
"2020-12-27 05:14:00",9.1,8.0,10.8,0.0,978.0
"2020-12-27 05:15:00",9.1,8.0,11.0,0.0,977.9
"2020-12-27 05:16:00",9.1,8.0,11.0,0.0,977.9
"2020-12-27 05:17:00",9.1,8.0,11.0,0.0,977.9
"2020-12-27 05:18:00",9.1,8.0,11.0,0.0,977.9
"2020-12-27 05:19:00",9.0,8.1,11.2,0.0,977.9
"2020-12-27 05:20:00",9.0,7.9,11.2,0.0,977.8
"2020-12-27 05:21:00",9.0,7.9,11.4,0.0,977.8
"2020-12-27 05:22:00",9.0,7.9,11.4,0.0,977.7
"2020-12-27 05:23:00",9.0,8.1,11.4,0.0,977.5
"2020-12-27 05:24:00",9.0,7.9,11.4,0.0,977.6
"2020-12-27 05:25:00",9.0,7.9,11.6,0.0,977.7
"2020-12-27 05:26:00",9.0,7.9,11.6,0.0,977.7
"2020-12-27 05:27:00",9.0,8.1,11.6,0.0,977.7
"2020-12-27 05:28:00",9.0,8.1,11.6,0.0,977.7
"2020-12-27 05:29:00",9.0,7.9,11.6,0.0,977.7
"2020-12-27 05:30:00",9.0,7.9,11.6,0.0,977.7
"2020-12-27 05:31:00",9.0,7.9,11.8,0.0,977.6
"2020-12-27 05:32:00",9.0,7.9,11.8,0.0,977.6
"2020-12-27 05:33:00",9.0,8.1,11.8,0.0,977.6
"2020-12-27 05:34:00",9.0,8.1,11.8,0.0,977.5
"2020-12-27 05:35:00",9.0,7.9,11.8,0.0,977.5
"2020-12-27 05:36:00",9.0,7.9,11.8,0.0,977.4
"2020-12-27 05:37:00",8.9,7.8,11.8,0.0,977.5
"2020-12-27 05:38:00",8.9,7.8,12.0,0.0,977.6
"2020-12-27 05:39:00",8.9,7.8,12.0,0.0,977.4
"2020-12-27 05:40:00",8.9,7.8,12.0,0.0,977.4
"2020-12-27 05:41:00",8.9,7.8,12.0,0.0,977.4
"2020-12-27 05:42:00",8.9,7.8,12.0,0.0,977.4
"2020-12-27 05:43:00",8.9,7.8,12.0,0.0,977.3
"2020-12-27 05:44:00",8.9,7.8,12.0,0.0,977.4
"2020-12-27 05:45:00",8.9,7.8,12.2,0.0,977.3
"2020-12-27 05:46:00",8.9,7.8,12.2,0.0,977.3
"2020-12-27 05:47:00",8.9,7.8,12.2,0.0,977.4
"2020-12-27 05:48:00",8.9,7.8,12.2,0.0,977.3
"2020-12-27 05:49:00",8.9,7.8,12.4,0.0,977.4
"2020-12-27 05:50:00",8.9,7.8,12.4,0.0,977.3
"2020-12-27 05:51:00",8.9,7.8,12.6,0.0,977.3
"2020-12-27 05:52:00",8.9,7.8,12.6,0.0,977.3
"2020-12-27 05:53:00",8.8,7.7,12.8,0.0,977.2
"2020-12-27 05:54:00",8.9,7.8,12.8,0.0,977.2
"2020-12-27 05:55:00",8.8,7.7,13.0,0.0,977.2
"2020-12-27 05:56:00",8.8,7.7,13.0,0.0,977.2
"2020-12-27 05:57:00",8.8,7.7,13.0,0.0,977.2
"2020-12-27 05:58:00",8.8,7.7,13.0,0.0,977.2
"2020-12-27 05:59:00",8.8,7.7,13.0,0.0,977.2
"2020-12-27 06:00:00",8.8,7.7,13.2,0.0,977.4
"2020-12-27 06:01:00",8.8,7.7,13.2,0.0,977.3
"2020-12-27 06:02:00",8.8,7.7,13.2,0.0,977.4
"2020-12-27 06:03:00",8.8,7.7,13.2,0.0,977.3
"2020-12-27 06:04:00",8.8,7.7,13.2,0.0,977.4
"2020-12-27 06:05:00",8.7,7.6,13.4,0.0,977.4
"2020-12-27 06:06:00",8.7,7.6,13.4,0.0,977.4
"2020-12-27 06:07:00",8.6,7.5,13.4,0.0,977.4
"2020-12-27 06:08:00",8.6,7.5,13.4,0.0,977.3
"2020-12-27 06:09:00",8.6,7.5,13.4,0.0,977.3
"2020-12-27 06:10:00",8.6,7.5,13.4,0.0,977.3
"2020-12-27 06:11:00",8.5,7.4,13.4,0.0,977.2
"2020-12-27 06:12:00",8.5,7.4,13.6,0.0,977.2
"2020-12-27 06:13:00",8.4,7.3,13.6,0.0,977.1
"2020-12-27 06:14:00",8.4,7.3,13.6,0.0,977.1
"2020-12-27 06:15:00",8.4,7.3,13.6,0.0,977.1
"2020-12-27 06:16:00",8.4,7.3,13.8,0.0,977.2
"2020-12-27 06:17:00",8.3,7.2,13.8,0.0,977.1
"2020-12-27 06:18:00",8.3,7.2,13.8,0.0,977.1
"2020-12-27 06:19:00",8.3,7.2,13.8,0.0,977.1
"2020-12-27 06:20:00",8.3,7.2,13.8,0.0,977.1
"2020-12-27 06:21:00",8.3,7.2,13.8,0.0,977.1
"2020-12-27 06:22:00",8.2,7.1,13.8,0.0,977.1
"2020-12-27 06:23:00",8.2,7.1,13.8,0.0,977.1
"2020-12-27 06:24:00",8.2,7.1,13.8,0.0,977.1
"2020-12-27 06:25:00",8.2,7.1,13.8,0.0,977.1
"2020-12-27 06:26:00",8.2,7.1,13.8,0.0,977.0
"2020-12-27 06:27:00",8.1,7.0,13.8,0.0,976.9
"2020-12-27 06:28:00",8.1,7.0,13.8,0.0,977.0
"2020-12-27 06:29:00",8.1,7.0,14.0,0.0,976.9
"2020-12-27 06:30:00",8.1,7.0,14.0,0.0,976.9
"2020-12-27 06:31:00",8.1,7.0,14.0,0.0,976.9
"2020-12-27 06:32:00",8.0,6.9,14.0,0.0,976.8
"2020-12-27 06:33:00",8.0,6.9,14.0,0.0,976.8
"2020-12-27 06:34:00",8.0,6.9,14.0,0.0,976.8
"2020-12-27 06:35:00",7.9,6.8,14.0,0.0,976.8
"2020-12-27 06:36:00",7.9,6.8,14.0,0.0,976.8
"2020-12-27 06:37:00",7.9,6.8,14.0,0.0,976.7
"2020-12-27 06:38:00",7.9,6.8,14.0,0.0,976.7
"2020-12-27 06:39:00",7.8,6.7,14.0,0.0,976.7
"2020-12-27 06:40:00",7.8,6.7,14.0,0.0,976.6
"2020-12-27 06:41:00",7.8,6.7,14.0,0.0,976.6
"2020-12-27 06:42:00",7.8,6.7,14.0,0.0,976.6
"2020-12-27 06:43:00",7.8,6.7,14.0,0.0,976.5
"2020-12-27 06:44:00",7.8,6.7,14.0,0.0,976.5
"2020-12-27 06:45:00",7.8,6.7,14.0,0.0,976.4
"2020-12-27 06:46:00",7.7,6.6,14.0,0.0,976.3
"2020-12-27 06:47:00",7.7,6.6,14.0,0.0,976.3
"2020-12-27 06:48:00",7.7,6.6,14.0,0.0,976.3
"2020-12-27 06:49:00",7.7,6.6,14.0,0.0,976.2
"2020-12-27 06:50:00",7.7,6.6,14.0,0.0,976.2
"2020-12-27 06:51:00",7.7,6.6,14.0,0.0,976.1
"2020-12-27 06:52:00",7.7,6.6,14.0,0.0,976.1
"2020-12-27 06:53:00",7.7,6.6,14.0,0.0,976.1
"2020-12-27 06:54:00",7.7,6.6,14.0,0.0,976.1
"2020-12-27 06:55:00",7.6,6.5,14.0,0.0,976.1
"2020-12-27 06:56:00",7.6,6.5,14.0,0.0,976.2
"2020-12-27 06:57:00",7.6,6.5,14.0,0.0,976.1
"2020-12-27 06:58:00",7.6,6.5,14.0,0.0,976.1
"2020-12-27 06:59:00",7.6,6.5,14.0,0.0,976.0
"2020-12-27 07:00:00",7.6,6.5,14.2,0.0,976.0
"2020-12-27 07:01:00",7.6,6.5,14.2,0.0,976.0
"2020-12-27 07:02:00",7.6,6.5,14.2,0.0,976.0
"2020-12-27 07:03:00",7.6,6.5,14.2,0.0,976.0
"2020-12-27 07:04:00",7.6,6.5,14.2,0.0,976.0
"2020-12-27 07:05:00",7.6,6.5,14.2,0.0,976.0
"2020-12-27 07:06:00",7.6,6.5,14.2,0.0,976.0
"2020-12-27 07:07:00",7.5,6.4,14.2,0.0,976.0
"2020-12-27 07:08:00",7.5,6.4,14.2,0.0,976.0
"2020-12-27 07:09:00",7.4,6.3,14.2,0.0,976.1
"2020-12-27 07:10:00",7.5,6.4,14.2,0.0,976.1
"2020-12-27 07:11:00",7.4,6.3,14.2,0.0,976.2
"2020-12-27 07:12:00",7.4,6.3,14.2,0.0,976.0
"2020-12-27 07:13:00",7.4,6.3,14.2,0.0,975.8
"2020-12-27 07:14:00",7.4,6.3,14.2,0.0,975.8
"2020-12-27 07:15:00",7.4,6.3,14.2,0.0,975.8
"2020-12-27 07:16:00",7.4,6.3,14.2,0.0,976.0
"2020-12-27 07:17:00",7.4,6.3,14.2,0.0,976.0
"2020-12-27 07:18:00",7.4,6.3,14.2,0.0,976.0
"2020-12-27 07:19:00",7.4,6.3,14.2,0.0,975.9
"2020-12-27 07:20:00",7.4,6.3,14.2,0.0,975.9
"2020-12-27 07:21:00",7.4,6.3,14.2,0.0,975.7
"2020-12-27 07:22:00",7.3,6.2,14.2,0.0,975.7
"2020-12-27 07:23:00",7.3,6.2,14.2,0.0,975.7
"2020-12-27 07:24:00",7.3,6.2,14.2,0.0,975.7
"2020-12-27 07:25:00",7.3,6.2,14.2,0.0,975.6
"2020-12-27 07:26:00",7.3,6.2,14.2,0.0,975.5
"2020-12-27 07:27:00",7.3,6.2,14.2,0.0,975.5
"2020-12-27 07:28:00",7.3,6.2,14.2,0.0,975.5
"2020-12-27 07:29:00",7.3,6.2,14.2,0.0,975.6
"2020-12-27 07:30:00",7.3,6.2,14.2,0.0,975.7
"2020-12-27 07:31:00",7.3,6.2,14.2,0.0,975.7
"2020-12-27 07:32:00",7.3,6.2,14.2,0.0,975.8
"2020-12-27 07:33:00",7.3,6.2,14.2,0.0,975.8
"2020-12-27 07:34:00",7.3,6.2,14.2,0.0,975.9
"2020-12-27 07:35:00",7.3,6.2,14.2,0.0,975.9
"2020-12-27 07:36:00",7.2,6.1,14.2,0.0,975.9
"2020-12-27 07:37:00",7.2,6.1,14.2,0.0,975.9
"2020-12-27 07:38:00",7.2,6.1,14.2,0.0,975.9
"2020-12-27 07:39:00",7.2,6.1,14.2,0.0,975.8
"2020-12-27 07:40:00",7.2,6.1,14.2,0.0,975.7
"2020-12-27 07:41:00",7.2,6.1,14.2,0.0,975.7
"2020-12-27 07:42:00",7.2,6.1,14.2,0.0,975.7
"2020-12-27 07:43:00",7.2,6.1,14.2,0.0,975.7
"2020-12-27 07:44:00",7.2,6.1,14.2,0.0,975.6
"2020-12-27 07:45:00",7.1,6.0,14.2,0.0,975.5
"2020-12-27 07:46:00",7.2,6.1,14.2,0.0,975.4
"2020-12-27 07:47:00",7.1,6.0,14.2,0.0,975.3
"2020-12-27 07:48:00",7.1,6.0,14.2,0.0,975.4
"2020-12-27 07:49:00",7.1,6.0,14.2,0.0,975.4
"2020-12-27 07:50:00",7.1,6.0,14.2,0.0,975.5
"2020-12-27 07:51:00",7.1,6.0,14.2,0.0,975.6
"2020-12-27 07:52:00",7.1,6.0,14.2,0.0,975.7
"2020-12-27 07:53:00",7.1,6.0,14.2,0.0,975.7
"2020-12-27 07:54:00",7.1,6.0,14.2,0.0,975.7
"2020-12-27 07:55:00",7.1,6.0,14.2,0.0,975.7
"2020-12-27 07:56:00",7.0,5.9,14.2,0.0,975.7
"2020-12-27 07:57:00",7.0,5.9,14.2,0.0,975.6
"2020-12-27 07:58:00",7.0,5.9,14.2,0.0,975.5
"2020-12-27 07:59:00",7.0,5.9,14.2,0.0,975.5
"2020-12-27 08:00:00",7.0,5.9,14.2,0.0,975.5
"2020-12-27 08:01:00",7.0,5.9,14.2,0.0,975.5
"2020-12-27 08:02:00",7.0,5.9,14.2,0.0,975.5
"2020-12-27 08:03:00",7.0,5.9,14.2,0.0,975.6
"2020-12-27 08:04:00",7.0,5.9,14.2,0.0,975.7
"2020-12-27 08:05:00",6.9,5.8,14.2,0.0,975.7
"2020-12-27 08:06:00",6.9,5.8,14.2,0.0,975.7
"2020-12-27 08:07:00",6.9,5.8,14.2,0.0,975.7
"2020-12-27 08:08:00",6.9,5.8,14.2,0.0,975.7
"2020-12-27 08:09:00",6.9,5.8,14.2,0.0,975.7
"2020-12-27 08:10:00",6.9,5.8,14.2,0.0,975.7
"2020-12-27 08:11:00",6.9,5.8,14.2,0.0,975.7
"2020-12-27 08:12:00",6.9,5.8,14.2,0.0,975.7
"2020-12-27 08:13:00",6.9,5.8,14.2,0.0,975.7
"2020-12-27 08:14:00",6.9,5.8,14.2,0.0,975.7
"2020-12-27 08:15:00",6.9,5.8,14.2,0.0,975.6
"2020-12-27 08:16:00",6.9,5.8,14.2,0.0,975.6
"2020-12-27 08:17:00",6.9,5.8,14.2,0.0,975.6
"2020-12-27 08:18:00",6.8,5.7,14.2,0.0,975.5
"2020-12-27 08:19:00",6.9,5.8,14.2,0.0,975.6
"2020-12-27 08:20:00",6.8,5.7,14.2,0.0,975.7
"2020-12-27 08:21:00",6.8,5.7,14.2,0.0,975.7
"2020-12-27 08:22:00",6.8,5.7,14.2,0.0,975.6
"2020-12-27 08:23:00",6.8,5.7,14.2,0.0,975.6
"2020-12-27 08:24:00",6.8,5.7,14.2,0.0,975.7
"2020-12-27 08:25:00",6.8,5.7,14.2,0.0,975.6
"2020-12-27 08:26:00",6.8,5.7,14.2,0.0,975.7
"2020-12-27 08:27:00",6.8,5.7,14.2,0.0,975.6
"2020-12-27 08:28:00",6.8,5.7,14.2,0.0,975.6
"2020-12-27 08:29:00",6.8,5.7,14.2,0.0,975.5
"2020-12-27 08:30:00",6.8,5.7,14.2,0.0,975.4
"2020-12-27 08:31:00",6.8,5.7,14.2,0.0,975.4
"2020-12-27 08:32:00",6.8,5.7,14.2,0.0,975.4
"2020-12-27 08:33:00",6.7,5.6,14.2,0.0,975.4
"2020-12-27 08:34:00",6.8,5.7,14.2,0.0,975.3
"2020-12-27 08:35:00",6.7,5.6,14.2,0.0,975.3
"2020-12-27 08:36:00",6.7,5.6,14.2,0.0,975.3
"2020-12-27 08:37:00",6.7,5.6,14.2,0.0,975.4
"2020-12-27 08:38:00",6.7,5.6,14.2,0.0,975.4
"2020-12-27 08:39:00",6.7,5.6,14.2,0.0,975.4
"2020-12-27 08:40:00",6.7,5.6,14.2,0.0,975.4
"2020-12-27 08:41:00",6.7,5.6,14.2,0.0,975.3
"2020-12-27 08:42:00",6.7,5.6,14.2,0.0,975.3
"2020-12-27 08:43:00",6.7,5.6,14.2,0.0,975.3
"2020-12-27 08:44:00",6.7,5.6,14.2,0.0,975.3
"2020-12-27 08:45:00",6.7,5.6,14.2,0.0,975.4
"2020-12-27 08:46:00",6.7,5.6,14.2,0.0,975.4
"2020-12-27 08:47:00",6.7,5.6,14.2,0.0,975.5
"2020-12-27 08:48:00",6.6,5.5,14.2,0.0,975.5
"2020-12-27 08:49:00",6.6,5.5,14.2,0.0,975.5
"2020-12-27 08:50:00",6.6,5.5,14.2,0.0,975.6
"2020-12-27 08:51:00",6.6,5.5,14.2,0.0,975.6
"2020-12-27 08:52:00",6.6,5.5,14.2,0.0,975.5
"2020-12-27 08:53:00",6.6,5.5,14.2,0.0,975.5
"2020-12-27 08:54:00",6.6,5.5,14.2,0.0,975.5
"2020-12-27 08:55:00",6.6,5.5,14.2,0.0,975.5
"2020-12-27 08:56:00",6.6,5.5,14.2,0.0,975.5